Current weather by "City, St" or "zip code"  
 

Current Conditions: McMinnville, McMinnville Municipal Airport, OR

Fair


54.0 F

Last Updated on Oct 31 2020, 11:53 am PDT
Humidity: 64%
Wind Speed: N 8.1 mph
Barometer 30.33 in
Dewpoint: 42.1 F
Visibility: 10.00 mi
Precip: --
Heat Index: NA
Wind Chill: 52 F
Current conditions at:

McMinnville, McMinnville Municipal Airport, OR (KMMV)

Lat: 45.19611 Lon: 123.13222

Local Radar Image active severe weather and emergency alerts image image weather storm and storm spotter reports image weather observation monitoring service image
Local
Radar
Active
Alerts
Storm Reports Obs
Monitoring

Sign-up For Email & Text Message Weather Alert Notification Services



Advertise Here

Observation History for McMinnville, McMinnville Municipal Airport, OR


Time Wind
(mph)
Vis
(mi)
Weather Precip (in) Temperature (F) Relative
Humidity
Wind
Chill
(F)
Heat
Index
(F)
Pressure
Air Dwpt altimeter
(in)
sea level
(mb)
Rmks
11:53 am PDT N 8.1 10.00 Fair -- 54.0 42.1 64% 52 NA 30.33 1027.2
10:53 am PDT N 5.8 10.00 Fair -- 50.0 42.1 74% 48 NA 30.35 1027.7
9:53 am PDT N 0.0 10.00 Fair -- 44.0 39.9 85% NA NA 30.37 1028.3
8:53 am PDT N 0.0 3.00 Fog/Mist -- 34.0 33.1 97% NA NA 30.36 1028.2
7:53 am PDT W 3.5 7.00 Fair -- 33.0 32.0 96% NA NA 30.35 1027.7
5:53 am PDT N 0.0 8.00 Fair -- 34.0 34.0 100% NA NA 30.34 1027.4
4:53 am PDT N 0.0 0.75 Fog/Mist -- 34.0 33.1 97% NA NA 30.33 1027.2
3:53 am PDT N 0.0 10.00 Fair -- 39.0 37.0 93% NA NA 30.33 1027.0
2:53 am PDT E 3.5 10.00 Fair -- 38.0 36.0 93% NA NA 30.32 1026.8
1:53 am PDT N 8.1 10.00 Fair -- 44.0 39.9 85% 39 NA 30.30 1026.1
12:53 am PDT NW 3.5 10.00 Fair -- 40.0 39.0 97% NA NA 30.31 1026.3
11:53 pm PDT W 4.6 10.00 Fair -- 36.0 36.0 100% 32 NA 30.32 1026.7
10:53 pm PDT NW 3.5 10.00 Fair -- 41.0 39.0 93% NA NA 30.30 1026.1
9:53 pm PDT N 0.0 10.00 Fair -- 43.0 39.9 89% NA NA 30.27 1025.1
8:53 pm PDT NW 3.5 10.00 Fair -- 49.0 42.1 77% NA NA 30.25 1024.4
7:53 pm PDT W 3.5 10.00 Fair -- 45.0 39.9 83% NA NA 30.24 1023.8
6:53 pm PDT N 4.6 10.00 Fair -- 53.0 42.1 66% 52 NA 30.21 1022.9
5:53 pm PDT NW 8.1 10.00 Partly Cloudy -- 57.0 44.1 62% 55 NA 30.18 1022.0
4:53 pm PDT NE 4.6 10.00 A Few Clouds -- 57.0 48.9 74% 57 NA 30.17 1021.5
3:53 pm PDT N 0.0 10.00 Mostly Cloudy -- 63.0 48.0 58% NA NA 30.15 1020.9
2:53 pm PDT N 0.0 10.00 Fair -- 60.0 48.9 67% NA NA 30.16 1021.2
1:53 pm PDT S 4.6 10.00 Partly Cloudy -- 57.0 51.1 81% 57 NA 30.17 1021.5
12:53 pm PDT N 0.0 10.00 Overcast -- 52.0 51.1 97% NA NA 30.17 1021.8

Regional Weather Observation


Tillamook, Tillamook Airport, OR (KTMK)

Fair
48.0 F

Portland-Hillsboro Airport, OR (KHIO)

Fair
52.0 F

Aurora State Airport, OR (KUAO)

Fair
51.0 F

Scappoose Industrial Airpark, OR (KSPB)

Fair
51.0 F

Pearson Airfield, WA (KVUO)

Fair
49.0 F

Portland, Portland International Airport, OR (KPDX)

Partly Cloudy
47.0 F